Location: Unspecified
(0.0000°N, 0.0000°E)
Time: 10:23:43
(UTC+02:00)

ARIANE DEB (SPELDA) - Visible Passes

Search period start: 28 April 2017 00:00
Search period end: 08 May 2017 00:00
Orbit: 302 x 32961 km, 3.3° (Epoch: 26 April)

Date Brightness Start Highest point End Pass type
(mag) Time Alt. Az. Time Alt. Az. Time Alt. Az.
29 Apr 6.8 02:28:21 10° W 04:14:43 50° W 11:20:20 10° E visible
29 Apr 6.8 21:20:14 10° W 21:32:40 88° N 06:19:26 10° E visible
01 May 6.5 02:46:19 10° W 04:30:23 45° W 11:35:15 10° E visible
01 May 7.1 21:35:16 10° W 21:49:47 87° N 06:35:28 10° E visible
03 May 6.3 03:04:36 10° W 04:45:35 39° W 11:49:52 10° E visible
03 May 7.4 21:50:02 10° W 22:07:07 87° N 06:51:00 10° E visible
05 May 6.0 03:23:24 10° W 05:00:18 34° W 12:04:09 10° E visible
05 May 7.7 22:04:35 10° W 22:24:46 86° N 07:06:04 10° E visible
07 May 5.8 03:42:59 10° W 05:14:34 29° W 12:18:09 10° ESE visible
